CREW DRAGON 1

Last updated on Mon May 03 2021 00:02:14 GMT+0000 (Coordinated Universal Time)

1 46920U 20084A 21122.16608519 -.00000472 00000-0 00000+0 0 9992 2 46920 51.6413 210.3563 0003648 291.1645 161.0916 15.52860534 25912
UTC large
Height (km)
Speed (km/s)
/
Latitude / Longitude
Inclination (degrees)
Orbital Period (minutes)
Azimuth
Elevation
Range (km)
Doppler Factor

Next 0 passes for location: London (51.5072 / 0.1276)

Sorry there are no passes over London.
CREW DRAGON 1